Location: Dackenheim
(49.5215°N, 8.1854°E)
Time: 20:58:49
(UTC+00:00)

Cosmos 2221 - Pass Details

Date: 19 May 2025
Orbit: 572 x 593 km, 82.5° (Epoch: 15 June)

Event Time Altitude Azimuth Distance (km) Brightness Sun altitude
Exits shadow 21:37:35 23° 198° (SSW) 1,253 3.7 -16.6°
Maximum altitude 21:40:07 74° 280° (W) 606 2.5 -16.8°
Drops below altitude 10° 21:44:18 10° 7° (N) 1,896 5.9 -17.1°
Sets 21:46:31 0° 9° (N) 2,798 6.9 -17.2°
